Voltar ao catálogo

OPS 4682 DEB

AtivoPO
NORAD 38452·DEBRIS·🇺🇸 United States

Lançado Apr 3, 1965 de Vandenberg Space Force Base

Loading…

Próximas Passagens (próximas 24 horas)

TLE

AtualizadoSource: Space-Track

Época: Sep 14, 2026, 06:40 UTC

1 38452U 65027FH  26257.27826793  .00000137  00000-0  47064-3 0  9993
2 38452  90.2559   5.5968 0013755 290.8619  69.1027 12.94014879634624

Acompanhe OPS 4682 DEB em tempo real com AllMySat

Download on the App Store